Location: Boone Canyon
(38.3180°N, 119.2504°W)
Time: 17:04:44
(UTC+00:00)

Cosmos 1500 - Pass Details

Date: 18 September 2020
Orbit: 498 x 520 km, 82.5° (Epoch: 19 October)

Event Time Altitude Azimuth Distance (km) Brightness Sun altitude
Rises 12:44:05 0° 339° (NNW) 2,646 6.7 -12.0°
Reaches altitude 10° 12:46:28 10° 327° (NNW) 1,751 5.7 -11.6°
Maximum altitude 12:49:40 26° 270° (W) 1,051 4.2 -11.0°
Drops below altitude 10° 12:52:51 10° 213° (SSW) 1,729 5.5 -10.4°
Sets 12:55:11 0° 200° (SSW) 2,606 6.5 -9.9°
